Showing default

GAOFEN 9 04, 46025

Orbit data source: Space-Track

GAOFEN 9 04, 46025 is a payload satellite owned by GGKGJ (CN) in SSO that was launched on Thu, 06 Aug 2020 UTC via a CHANG ZHENG 2D launch vehicle from the Jiuquan Satellite Launch Center, China (JSC). Payloads include a variety of satellites, spacecraft, and rockets equipped with specific instruments for various scientific and technological missions. These include communications satellites like Starlink; space stations such as the ISS; scientific satellites like the Hubble; Earth observation satellites from companies like Planet Labs, Umbra, and HawkEye 360; GPS; miniature CubeSats for education and research; and military/defense satellites.

Loading next visibility...
GAOFEN 9 04 details
Identifier
46025, 2020-054A
Orbit
SSO
Last TLE update8 hours ago
Origin
Flag of CNGGKGJ (CN / PRC)
ManufacturerDFH
MissionOperational Defense Imaging
Bus & MotorCAST-3000, AOCS
Mass~1,700 kg wet, ~1,500 kg dry
Launch date (UTC)
2020-08-06 (4 years ago)
Launch vehicle
CHANG ZHENG 2D
Launch site
Jiuquan Satellite Launch Center, China (JSC)
Object type
Payload
Rocket body
Debris
Shape & HBRBox + 2 Pan, Unknown HBR
Radar Cross Section4.991 m², Large (>1 m²)

Expand to show TLE details & history

TLE from 8 hours ago
0 GAOFEN 9 04
1 46025U 20054A   24361.54194231  .00028678  00000-0  11694-2 0  9997
2 46025  97.3125  70.1227 0013297 191.0605 169.0343 15.24320533244126
Epoch: 2024-12-26T13:00Z
Definitive object data (Epoch: 2024-12-26T13:00:23.815Z)
Latitude0.00003°
Longitude139.50362°
Altitude504.897 km
Speed7.607 km/s
True Right ascension04h 40m 29s
True Declination0° 00' 00"
Sunlit
Object was in full shadow at TLE epoch
Visualization TLE readout
Latitude76.50511°
Longitude107.71226°
Altitude509.094 km
Speed7.614 km/s
Apparent Right ascension07h 23m 27s
Apparent Declination26° 53' 35"
Sunlit
Object is in full shadow
Visualization observer readout
Local Sidereal Time20:36:38
Azimuth17.455° NNE
Elevation-21.053°
Doppler factor1
Orbital elements
Apogee altitude498.915 km
Perigee altitude480.65 km
Semi-major axis6,867.92 km
Eccentricity0.0013297
Inclination97.3125°
RAAN70.1227°
Arg. of periapsis191.0605°
True anomaly169.06324°
Mean anomaly169.0343°
Eccentric anomaly169.04877°
Mean motion3.81334 °/min
BSTAR0.0011694
Orbital period94.41 mins
Loading maneuver chart data...
Loading historical data...
Loading historical data...
Loading historical data...
Loading historical data...
Loading historical data...
Loading historical data...
Loading historical data...
Other satellites on launch #54 in the year 2020 (2020-08-06 UTC)

GAOFEN 9 04 Visibility forecast

Observer location: undefined°, undefined

Span
Click to sort rows by Start time (UTC) header in descending order
Start Az.
Max El. time (UTC)
Max El. Az.
Max El.
End time (UTC)
End Az.
7 mins2024-12-27 04:52:40.725Z168.962° S2024-12-27 04:56:40.725Z335.641° NNW42.681°2024-12-27 04:59:40.725Z346.951° N
5 mins2024-12-27 17:56:40.725Z351.418° N2024-12-27 17:58:40.725Z263.167° W38.515°2024-12-27 18:01:40.725Z207.556° SW
|